GW2364 Weather Reports


time (UTC)temp
C
wind
direction
speed
KPH
gust
KPH
rain 1hr
cm
rain 24hr
cm
rain mn
cm
humidity
%
barometer
mb
20260831181503 35 94 3.2 14.5 0.00 0.00 0.00 52 1014.1
20260831180014 33 251 1.6 12.9 0.00 0.00 0.00 53 1014.3
20260831174503 33 105 3.2 16.1 0.00 0.00 0.00 53 1014.6
20260831173005 33 90 4.8 14.5 0.00 0.00 0.00 54 1014.8
20260831171503 33 245 1.6 11.3 0.00 0.00 0.00 58 1015.0
20260831170005 33 130 4.8 11.3 0.00 0.00 0.00 57 1014.9
20260831164502 32 237 1.6 9.7 0.00 0.00 0.00 61 1015.0
20260831163003 32 225 4.8 11.3 0.00 0.00 0.00 63 1015.1
20260831161503 31 246 3.2 9.7 0.00 0.00 0.00 66 1015.1
20260831160005 30 230 1.6 11.3 0.00 0.00 0.00 69 1014.9
20260831154503 30 230 1.6 11.3 0.00 0.00 0.00 71 1015.0
20260831153003 30 117 4.8 12.9 0.00 0.00 0.00 71 1014.9
20260831151503 29 221 4.8 16.1 0.00 0.00 0.00 73 1014.8
20260831150005 30 342 1.6 9.7 0.00 0.00 0.00 72 1014.8
20260831144502 28 205 1.6 6.4 0.00 0.00 0.00 78 1014.6
20260831143003 27 237 3.2 11.3 0.00 0.00 0.00 81 1014.6
20260831141502 27 252 1.6 8.0 0.00 0.00 0.00 84 1014.5
20260831140007 26 213 1.6 11.3 0.00 0.00 0.00 86 1014.3
20260831134503 26 207 1.6 6.4 0.00 0.00 0.00 90 1014.3
20260831133002 25 240 1.6 6.4 0.00 0.00 0.00 91 1014.2
20260831131503 25 225 0.0 3.2 0.00 0.00 0.00 93 1014.1
20260831130005 25 225 0.0 3.2 0.00 0.00 0.00 93 1014.0
20260831124503 24 225 0.0 3.2 0.00 0.00 0.00 94 1013.8
20260831123003 24 225 0.0 3.2 0.00 0.00 0.00 93 1013.8
20260831121505 24 225 0.0 1.6 0.00 0.00 0.00 93 1013.7
20260831120007 24 225 0.0 1.6 0.00 0.00 0.00 92 1013.6
20260831114506 24 225 0.0 1.6 0.00 0.00 0.00 92 1013.6
20260831113002 25 225 0.0 4.8 0.00 0.00 0.00 92 1013.7
20260831111503 25 225 0.0 4.8 0.00 0.00 0.00 91 1013.6
20260831110005 25 225 0.0 4.8 0.00 0.00 0.00 91 1013.5
20260831104502 25 225 0.0 4.8 0.00 0.00 0.00 91 1013.4
20260831103002 25 232 0.0 4.8 0.00 0.00 0.00 90 1013.5
20260831101502 25 213 0.0 4.8 0.00 0.00 0.00 90 1013.5
20260831100004 25 238 0.0 6.4 0.00 0.00 0.00 90 1013.6
20260831094502 25 238 1.6 6.4 0.00 0.00 0.00 90 1013.6
20260831093001 25 220 1.6 11.3 0.00 0.00 0.00 90 1013.5
20260831091502 25 226 1.6 6.4 0.00 0.00 0.00 89 1013.4
20260831090003 25 219 1.6 8.0 0.00 0.00 0.00 88 1013.4
20260831084600 25 220 3.2 12.9 0.00 0.00 0.00 88 1013.4
20260831084501 25 221 1.6 11.3 0.00 0.00 0.00 88 1013.5
20260831083001 25 221 1.6 8.0 0.00 0.00 0.00 88 1013.5
20260831081501 25 167 1.6 4.8 0.00 0.00 0.00 87 1013.6
20260831080004 25 271 0.0 6.4 0.00 0.00 0.00 86 1013.5
20260831074501 26 250 1.6 8.0 0.00 0.00 0.00 85 1013.5
20260831073004 26 213 0.0 4.8 0.00 0.00 0.00 83 1013.6
20260831071502 26 202 0.0 4.8 0.00 0.00 0.00 81 1013.7
20260831070003 26 223 1.6 9.7 0.00 0.00 0.00 79 1013.6
20260831064501 26 139 0.0 4.8 0.00 0.00 0.00 78 1013.8
20260831063001 27 94 1.6 11.3 0.00 0.00 0.00 77 1013.8
20260831061504 27 239 1.6 8.0 0.00 0.00 0.00 76 1013.5
20260831060006 27 120 0.0 8.0 0.00 0.00 0.00 76 1013.5
20260831054509 27 234 0.0 12.9 0.00 0.00 0.00 75 1013.3
20260831053004 28 61 0.0 8.0 0.00 0.00 0.00 73 1013.2
20260831051507 28 101 0.0 6.4 0.00 0.00 0.00 72 1013.1
20260831050008 28 81 0.0 8.0 0.00 0.00 0.00 70 1013.1
20260831044504 28 97 1.6 4.8 0.00 0.00 0.00 69 1012.9
20260831043004 29 62 0.0 11.3 0.00 0.00 0.00 67 1012.9
20260831041504 29 86 1.6 12.9 0.00 0.00 0.00 66 1012.9
20260831040015 29 119 3.2 11.3 0.00 0.00 0.00 65 1013.0
20260831034504 30 81 3.2 9.7 0.00 0.00 0.00 63 1012.8
20260831033004 30 140 4.8 12.9 0.00 0.00 0.00 62 1012.6
20260831031503 30 40 3.2 11.3 0.00 0.00 0.00 62 1012.5
20260831030007 30 118 3.2 12.9 0.00 0.00 0.00 61 1012.1
20260831024504 31 103 4.8 14.5 0.00 0.00 0.00 61 1012.1
20260831023006 31 32 1.6 9.7 0.00 0.00 0.00 60 1011.8
20260831021504 31 31 1.6 12.9 0.00 0.00 0.00 58 1011.4
20260831020007 32 92 4.8 17.7 0.00 0.00 0.00 54 1011.4
20260831014504 31 53 3.2 8.0 0.00 0.00 0.00 51 1011.0
20260831013004 31 62 1.6 4.8 0.00 0.00 0.00 50 1010.6
20260831011503 32 67 1.6 4.8 0.00 0.00 0.00 50 1010.5
20260831010010 32 88 1.6 4.8 0.00 0.00 0.00 49 1010.6
20260831004504 33 74 1.6 9.7 0.00 0.00 0.00 47 1010.6
20260831003004 33 90 1.6 9.7 0.00 0.00 0.00 46 1010.5
20260831001506 34 60 3.2 11.3 0.00 0.00 0.00 45 1010.5
20260831000007 35 69 3.2 11.3 0.00 0.00 0.00 44 1010.4
20260830234508 35 126 3.2 9.7 0.00 0.00 0.00 42 1010.4
20260830233003 35 60 3.2 12.9 0.00 0.00 0.00 41 1010.5
20260830231503 35 75 3.2 16.1 0.00 0.00 0.00 40 1010.5
20260830230006 36 82 3.2 8.0 0.00 0.00 0.00 39 1010.5
20260830224503 36 43 3.2 9.7 0.00 0.00 0.00 39 1010.6
20260830223003 36 62 3.2 9.7 0.00 0.00 0.00 41 1010.7
20260830221503 36 43 3.2 11.3 0.00 0.00 0.00 41 1010.8
20260830220005 37 102 4.8 11.3 0.00 0.00 0.00 40 1010.7
20260830214503 36 198 1.6 12.9 0.00 0.00 0.00 41 1011.0
20260830213005 36 254 6.4 11.3 0.00 0.00 0.00 40 1011.1
20260830211503 36 86 3.2 14.5 0.00 0.00 0.00 41 1011.5
20260830210006 36 132 1.6 12.9 0.00 0.00 0.00 43 1011.9
20260830204504 36 110 4.8 12.9 0.00 0.00 0.00 43 1011.9
20260830203003 36 86 4.8 12.9 0.00 0.00 0.00 45 1012.1
20260830201503 36 75 4.8 14.5 0.00 0.00 0.00 46 1012.2
20260830200005 36 211 3.2 16.1 0.00 0.00 0.00 46 1012.4
20260830194503 35 40 1.6 16.1 0.00 0.00 0.00 49 1012.6
20260830193009 35 118 4.8 16.1 0.00 0.00 0.00 48 1012.9